sat.trackr.live / text

‹ back to catalog

STARLINK-30053

NORAD 56700 · 2023-067N

PAYLOAD ACTIVE UNKNOWN

§ Identity

Operator
Country
US
Launch date
2023-05-19
Launch site
AFETR
Launch vehicle
Mass (kg)
RCS (m²)

Purposes: comms

External: N2YO · Heavens-Above · Gunter

§ Orbital elements

Epoch: 2026-05-24T15:08:05.028864Z

Period
94.27 min
Inclination
43.0028°
Eccentricity
0.0001889
Mean motion
15.27574664 rev/d
Perigee alt
481.8 km
Apogee alt
484.4 km
Semi-major
6,861.2 km
B*
4.2119e-5
RAAN
202.2416°
Arg perigee
273.1514°
Mean anomaly
86.9121°
Rev number
16,731

§ Raw data

STARLINK-300531 56700U 23067N   26144.63061376  .00000897  00000+0  42119-4 0  99992 56700  43.0028 202.2416 0001889 273.1514  86.9121 15.27574664167315

JSON: /api/v1/satellites/56700 · /tle

For live sub-satellite position, see the globe view (requires WebGL).

§ Visibility from observer

Set your observer location to see the next 7 days of passes ≥ 10°. The values pass through the URL so the page stays shareable.

No JS? Fill the form by hand. The geolocation button needs JavaScript.